Location: Adelzhausen
(48.3574°N, 11.1388°E)
Time: 09:55:48
(UTC+00:00)

Daily predictions for brighter satellites

Satellite Brightness Start Highest point End
(mag) Time Altitude Azimuth Time Altitude Azimuth Time Altitude Azimuth
SL-16 R/B 2.9 19:27:09 10° SSE 19:32:06 32° ESE 19:37:05 10° NE
Cosmos 1933 3.5 19:28:42 10° S 19:32:33 53° E 19:36:26 10° NNE
Cosmos 1515 3.7 19:30:35 10° S 19:33:58 50° E 19:37:22 10° NNE
Cosmos 1538 Rocket 4.3 19:30:56 10° SSW 19:36:11 77° WNW 19:41:25 10° NNE
COSMOS 2428 4.4 19:31:08 10° WSW 19:36:26 39° NW 19:41:45 10° NNE
CZ-4C R/B 3.4 19:32:55 10° NNE 19:36:32 50° E 19:40:17 10° S
MetOp-B 4.3 19:31:49 10° SSE 19:37:05 61° ENE 19:42:22 10° N
Cosmos 2056 Rocket 4.2 19:32:37 10° NNW 19:37:49 45° ENE 19:42:56 10° SE
Lacrosse 5 1.9 19:33:27 10° NW 19:38:36 86° NE 19:43:43 10° SE
Ariane Rocket 3.9 19:37:10 10° SE 19:41:41 34° ENE 19:46:13 10° N
USA 276 1.9 19:39:42 10° WNW 19:41:49 52° N 19:44:03 10° E
Meteor 1-5 Rocket 4.4 19:36:34 10° N 19:42:31 67° ENE 19:48:16 10° SSE
IRS-1C Rocket 4.3 19:37:42 10° SSE 19:42:52 62° ENE 19:48:05 10° N
CZ-4 R/B 4.0 19:40:49 10° SW 19:43:21 17° W 19:45:55 10° NW
Cosmos 44 3.7 19:39:00 10° NNW 19:43:49 52° NE 19:48:20 10° ESE
Lacrosse 5 rocket 1.5 19:39:52 10° SW 19:44:05 56° SE 19:48:14 10° ENE
Cosmos 1812 Rocket 3.5 19:40:50 10° S 19:45:14 75° E 19:49:39 10° NNE
Cosmos 2369 Rocket 3.1 19:40:05 10° NNW 19:45:16 37° NE 19:50:26 10° ESE
ATLAS 5 CENTAUR R/B 4.0 19:43:08 10° WNW 19:47:16 24° WSW 19:52:02 10° SSW
Cosmos 2221 3.2 19:46:42 10° SSE 19:50:39 36° E 19:54:37 10° NNE
Cosmos 2344 4.2 19:42:43 10° NW 19:51:05 82° SW 20:02:44 10° SSE
Cosmos 2084 3.9 19:50:40 10° NNW 19:54:17 43° NE 19:57:45 11° ESE
Resurs 01 Rocket 3.4 19:50:38 10° SSW 19:54:35 31° W 19:58:34 10° NNW
Cosmos 2237 Rocket 3.0 19:53:14 10° SW 19:58:50 58° WNW 20:04:29 10° NNE
BREEZE-M DEB (TANK) 2.1 19:56:57 10° SW 20:00:05 45° SSE 20:02:07 10° E
USA 308 3.7 19:58:24 10° W 20:00:34 22° SW 20:02:55 11° SSE
Cosmos 1378 2.7 19:57:54 10° S 20:01:10 74° E 20:04:27 10° NNE
ATLAS 3B R/B 3.1 19:54:39 10° NW 20:02:32 85° SW 20:09:47 12° SE
BREEZE-M DEB (TANK) 3.9 19:59:48 10° SW 20:03:20 50° SSE 20:12:19 10° E
Cosmos 921 Rocket 3.9 20:01:13 10° SSE 20:05:11 32° E 20:09:12 10° NE
Aureole 3 Rocket 3.0 20:03:01 10° N 20:06:34 63° E 20:10:56 12° SSE
GEOS 3 Rocket 3.9 20:02:37 10° NE 20:07:32 43° ESE 20:12:22 10° SSW
SPOT 5 2.9 20:02:53 10° S 20:07:35 77° WSW 20:12:05 10° NNW
Cosmos 923 Rocket 4.1 20:02:19 10° SSW 20:07:38 89° ESE 20:13:01 10° NNE
USA 306 4.2 20:05:34 10° WNW 20:09:00 34° N 20:12:36 10° ENE
Landsat 4 3.6 20:08:44 14° SSE 20:11:35 63° ENE 20:15:04 10° N
ARGOS Delta rocket 4.0 20:09:57 11° SSE 20:14:51 74° ENE 20:19:45 10° N
Cosmos 1943 4.4 20:12:15 14° SE 20:15:42 23° ESE 20:20:05 10° NE
Okean O Rocket 3.8 20:13:04 10° SW 20:16:34 23° W 20:20:05 10° NW
USA 234 4.5 20:11:26 10° ENE 20:17:30 42° N 20:23:33 10° WNW
Terra 1.8 20:13:56 13° SSE 20:18:05 75° ENE 20:22:49 10° N
Cosmos 1656 Rocket 3.6 20:17:35 10° NNW 20:23:04 80° ENE 20:27:23 17° SSE
Cosmos 1371 Rocket 4.1 20:18:12 10° NNW 20:23:35 83° WSW 20:28:03 15° SSE
ERS-1 Rocket 3.0 20:18:56 12° SSE 20:23:37 85° WSW 20:28:40 10° NNW
ATLAS 2AS CENTAUR R/B 3.6 20:19:20 10° WSW 20:26:33 56° NW 20:33:30 10° NE
Cosmos 1842 Rocket 4.2 20:24:38 17° SSE 20:27:34 38° E 20:31:42 10° NNE
SPOT 3 Rocket 3.6 20:24:07 16° SSE 20:28:18 73° ENE 20:33:27 10° N
Meteor 1-14 Rocket 4.4 20:22:52 10° N 20:28:41 68° ENE 20:33:21 17° SSE
USA 59 Rocket 2.3 20:29:05 10° N 20:31:07 14° NNE 20:33:25 10° ENE
Meteor 1-11 Rocket 4.5 20:26:43 10° N 20:31:58 39° ENE 20:35:44 18° SE
USA 281 3.3 20:27:32 16° SE 20:32:56 75° ENE 20:39:33 10° NNW
Cosmos 1943 Rocket 4.0 20:30:17 10° NW 20:34:51 25° WSW 20:39:22 10° SSW
Cosmos 1743 2.6 20:35:25 10° NNW 20:39:02 78° W 20:41:25 20° S
ISS -3.1 20:37:41 10° WNW 20:40:58 53° NNE 20:43:46 13° E
ARIANE 5 R/B 4.4 20:38:36 13° ESE 20:41:05 20° ENE 20:44:13 10° NNE
USA 245 3.5 20:42:39 19° SSW 20:43:45 30° W 20:45:47 10° NW
Cosmos 2279 Rocket 4.0 20:40:20 10° N 20:46:32 69° ENE 20:50:54 20° SSE
Cosmos 2297 3.9 20:41:37 10° NNW 20:47:20 68° WSW 20:51:24 20° SSE
Cosmos 1634 Rocket 4.1 20:41:10 10° N 20:47:30 82° W 20:52:38 16° S
Cosmos 2112 Rocket 4.4 20:44:49 10° SSW 20:50:06 66° WNW 20:55:24 10° NNE
USA 290 4.4 20:48:57 10° NW 20:51:22 20° WSW 20:53:34 11° SSW
Cosmos 1766 Rocket 4.1 20:47:46 10° NNW 20:52:07 56° W 20:55:32 16° S
USA 229 DEB 4.0 20:48:37 10° NW 20:56:03 88° SW 21:01:46 21° SE
USA 229 4.0 20:48:43 10° NW 20:56:09 88° SW 21:01:53 21° SE
Cosmos 1726 1.6 20:54:28 10° N 20:57:37 69° E 20:58:35 39° SSE
Spot 2 Rocket 4.0 20:54:06 16° S 20:58:00 56° W 21:02:58 10° NNW
Meteor 2-6 Rocket 4.3 20:58:32 10° SSW 21:04:09 78° WNW 21:09:41 10° N
Cosmos 1743 Rocket 4.2 21:04:54 10° N 21:09:05 42° ENE 21:10:51 28° SE
MetOp-A 3.7 21:11:24 28° S 21:13:41 78° WSW 21:18:26 10° NNW
Sich 1 3.4 21:09:53 10° N 21:14:09 51° ENE 21:15:51 32° SE
SL-16 R/B 3.2 21:10:34 10° SW 21:16:02 48° NW 21:21:32 10° NNE
USA 276 2.8 21:13:53 10° W 21:15:14 29° W 21:15:14 29° W
Cosmos 2263 4.3 21:11:10 10° NNW 21:16:50 70° WSW 21:20:00 27° S
MOS 1 Rocket 4.1 21:13:56 19° SSW 21:17:20 50° W 21:22:26 10° NNW
Cosmos 1603 4.0 21:15:41 27° SSE 21:18:21 45° ESE 21:23:46 10° NE
Ariane Rocket 4.1 21:16:49 15° SSW 21:20:33 37° W 21:25:16 10° NNW
Cosmos 1536 2.7 21:16:55 10° N 21:20:48 83° W 21:22:15 37° S
Cosmos 1975 4.3 21:17:40 10° NNE 21:20:51 23° ENE 21:21:58 20° E
Lacrosse 5 3.5 21:17:08 10° WNW 21:21:04 23° SW 21:23:08 18° SSW
Cosmos 2180 Rocket 4.4 21:15:47 10° N 21:22:01 90° NW 21:25:40 26° S
USA 267 4.1 21:17:15 10° ENE 21:22:33 26° SE 21:23:23 25° SE
Lacrosse 5 rocket 2.9 21:18:33 10° W 21:22:36 39° NNW 21:26:34 10° NE
Cosmos 1452 Rocket 3.5 21:18:56 10° NNW 21:24:13 84° WSW 21:26:45 31° SSE
Cosmos 1408 Rocket 3.6 21:19:45 10° NNW 21:24:13 79° W 21:26:12 33° S
Spot 1 4.4 21:20:40 10° N 21:24:40 59° WNW 21:27:37 18° SSW
Meteor 1-27 Rocket 3.8 21:22:18 29° SSE 21:25:04 61° E 21:30:31 10° NNE
Cosmos 468 4.5 21:22:15 26° S 21:25:08 65° ESE 21:30:19 10° NNE
Okean 1 3.1 21:25:59 41° S 21:27:14 77° E 21:31:07 10° NNE
Cosmos 1340 2.9 21:25:01 10° N 21:28:19 44° ENE 21:28:50 40° ESE
Cosmos 2369 Rocket 2.9 21:24:07 10° NW 21:29:22 43° WSW 21:32:23 23° SSW
Cosmos 1626 4.2 21:31:50 12° ENE 21:31:50 12° ENE 21:32:52 10° ENE
USA 306 3.1 21:39:25 10° WNW 21:43:15 58° NNE 21:45:08 27° E
Meteor 2-17 Rocket 4.4 21:50:27 29° S 21:53:45 90° E 21:59:50 10° N
SL-8 R/B 3.6 21:50:54 10° WSW 21:55:35 61° SSE 22:00:18 10° E
Terra 4.2 21:53:36 10° WSW 21:56:14 15° W 21:58:52 10° NW
Cosmos 1500 Rocket 4.1 21:52:19 10° NNW 21:56:30 49° W 21:57:58 33° SW
Cosmos 1328 Rocket 4.4 21:56:13 32° ESE 21:56:49 34° E 22:00:45 10° NNE
Cosmos 1943 3.6 21:53:56 12° SW 21:59:15 64° WNW 22:04:55 10° NNE
Cosmos 1733 3.3 21:56:12 10° NNW 21:59:39 53° W 22:00:07 48° SW
USA 234 3.8 21:53:30 10° E 21:59:53 57° NNE 22:06:16 10° NW
Spot 4 4.2 21:58:25 37° SE 22:00:02 55° ENE 22:04:41 10° N
ALOS 2 3.5 21:58:50 30° ESE 22:00:12 38° ENE 22:04:16 10° N
Meteor 2-4 Rocket 4.0 22:00:28 36° SSE 22:02:40 57° E 22:08:29 10° NNE
H-2A R/B 2.4 22:02:30 53° SE 22:03:24 77° ENE 22:07:36 10° NNW
Cosmos 1805 Rocket 4.2 22:01:12 10° NNW 22:05:25 48° W 22:06:48 35° SW
IRIDIUM 104 4.2 22:01:06 10° N 22:06:22 87° E 22:08:14 41° S
Lacrosse 4 Rocket 2.9 22:05:03 10° NNW 22:08:37 29° NE 22:10:34 20° E
Cosmos 1151 Rocket 3.0 22:08:37 45° SSW 22:09:54 77° W 22:14:17 10° N
Cosmos 1092 Rocket 4.0 22:10:25 36° S 22:13:05 72° E 22:19:23 10° NNE
Cosmos 1666 Rocket 3.5 22:09:10 10° N 22:13:31 73° E 22:14:23 54° SE
Cosmos 1428 Rocket 4.4 22:11:51 34° S 22:14:45 88° W 22:20:55 10° N
IRIDIUM 114 4.3 22:10:16 10° N 22:15:30 79° W 22:17:22 41° S
Cosmos 1302 Rocket 4.0 22:10:24 10° NNW 22:15:35 73° WSW 22:17:13 44° S
SAR-Lupe-3 4.4 22:15:44 72° ESE 22:15:54 75° ENE 22:19:26 10° N
Cosmos 1656 4.2 22:11:06 10° NNW 22:16:25 51° ENE 22:19:03 28° ESE
ARIANE 5 R/B 3.0 22:16:04 41° SW 22:17:08 51° W 22:21:23 10° NNW
Cosmos 1633 Rocket 3.1 22:12:48 10° N 22:17:12 66° ENE 22:18:08 51° SE
ISS -2.6 22:14:23 10° WNW 22:16:32 33° W 22:16:32 33° W
Cosmos 1340 Rocket 3.4 22:17:22 37° SW 22:18:33 51° WNW 22:22:29 10° N
USA 59 Rocket 0.2 22:17:27 10° NW 22:21:17 69° NE 22:22:59 38° ESE
NOSS 2-1 (E) 3.7 22:18:19 10° NW 22:22:08 70° NE 22:23:49 39° ESE
Cosmos 1992 Rocket 4.1 22:18:46 10° NNW 22:24:00 70° ENE 22:25:48 41° SE
IRIDIUM 103 4.5 22:19:27 10° N 22:24:39 66° W 22:26:30 39° SSW
CZ-2C R/B 4.3 22:21:02 10° N 22:25:27 51° WNW 22:27:22 30° SW
H-2A R/B 3.5 22:21:53 10° NE 22:25:34 25° E 22:25:53 25° ESE
Cosmos 1697 Rocket 4.2 22:22:04 10° NNW 22:27:03 31° NE 22:31:17 13° ESE
Cosmos 614 Rocket 3.9 22:27:45 46° S 22:29:15 73° ESE 22:34:28 10° NNE
Cosmos 1766 3.4 22:26:58 10° N 22:30:39 53° ENE 22:30:52 52° E
Cosmos 1980 Rocket 4.4 22:27:59 10° N 22:32:11 20° NE 22:36:21 10° E
NOSS 2-1 (D) 3.5 22:29:55 10° NW 22:33:46 90° SE 22:34:55 51° SE
Cosmos 1707 4.4 22:34:21 20° E 22:34:21 20° E 22:36:56 10° NE
Cosmos 1470 4.0 22:31:12 10° NNE 22:34:29 28° ENE 22:34:54 27° E
Cosmos 1805 4.1 22:36:28 10° NNW 22:39:53 35° W 22:40:09 35° WSW
Spot 2 4.4 22:50:57 49° SW 22:51:49 59° W 22:56:33 10° NNW
Cosmos 1975 3.9 22:53:16 10° NNW 22:56:47 32° W 22:57:09 31° WSW
NOSS 3-3 (A) 3.9 22:59:40 45° SSE 23:00:57 54° ESE 23:07:06 10° NE
Lacrosse 5 rocket 3.8 22:58:18 10° WNW 23:01:49 24° N 23:05:13 10° NE
Cosmos 1626 2.9 23:04:41 37° WNW 23:04:41 37° WNW 23:07:36 10° N
Cosmos 1269 Rocket 3.9 23:04:35 50° S 23:06:00 80° ESE 23:11:18 10° NNE
USA 267 3.1 22:59:39 10° NE 23:06:13 80° SE 23:10:42 22° SW
Cosmos 1140 Rocket 4.3 23:05:26 33° SE 23:06:22 36° ESE 23:11:07 10° NE
Cosmos 1674 2.6 23:07:50 69° NE 23:07:50 69° NE 23:11:03 10° NNE
NOSS 2-1 (C) 3.9 23:05:09 10° NW 23:08:59 49° SW 23:09:08 49° SW
Cosmos 2082 Rocket 4.2 23:08:47 13° ESE 23:10:15 15° E 23:13:16 10° ENE
PSLV R/B 3.6 23:08:32 10° NNE 23:13:10 86° ESE 23:13:59 60° S
USA 306 4.2 23:13:19 10° WNW 23:15:15 24° W 23:15:15 24° W
Cosmos 1833 Rocket 2.9 23:17:10 43° SSE 23:18:31 53° ESE 23:23:58 10° NE
Cosmos 44 Rocket 4.1 23:18:06 10° NNW 23:22:57 49° NE 23:26:07 20° ESE
Cosmos 2315 Rocket 4.3 23:18:25 10° N 23:24:38 59° ENE 23:27:37 31° SE
S3M 4.0 23:19:25 10° N 23:25:50 85° E 23:28:27 39° SSE
NOSS 3-3 (C) 3.7 23:26:06 44° SSW 23:28:00 76° SE 23:34:25 10° NE
SL-24 R/B 4.5 23:25:56 10° N 23:30:19 63° WNW 23:31:32 45° SW
Cosmos 2285 Rocket 4.3 23:29:13 38° SSE 23:31:23 55° ESE 23:37:33 10° NNE
Cosmos 1515 Rocket 3.9 23:31:37 46° WSW 23:32:24 53° WNW 23:36:41 10° N
GP-B 3.1 23:30:42 10° N 23:35:07 72° E 23:35:54 56° SSE
Cosmos 1400 Rocket 4.2 23:34:57 27° ESE 23:35:28 27° E 23:38:54 10° NNE
ALOS 2 4.0 23:36:13 25° WSW 23:36:38 25° W 23:40:17 10° NW
SL-8 R/B 3.6 23:33:11 10° W 23:37:58 88° N 23:42:46 10° E
Cosmos 1869 Rocket 3.4 23:37:55 10° N 23:42:16 85° W 23:42:58 62° S
USA 234 3.2 23:38:50 25° SE 23:42:50 67° SW 23:49:23 10° WNW
Meteor 1-13 Rocket 4.3 23:41:22 42° S 23:43:31 84° E 23:49:28 10° NNE
Cosmos 1733 Rocket 4.0 23:41:20 10° N 23:45:25 40° ENE 23:46:57 29° ESE
Lacrosse 4 Rocket 2.2 23:43:12 10° NW 23:46:28 35° W 23:46:28 35° W
Meteor 1-23 Rocket 4.5 23:47:12 37° SSE 23:49:10 58° E 23:54:40 10° NNE
Cosmos 1346 Rocket 4.4 23:50:52 10° N 23:54:15 28° ENE 23:55:56 20° ESE
